This demonstration page uses our WeatherBlox Daily Observations layout. Learn more.

Left ArrowRight Arrow

40.92501, -98.34201

Hourly Observations for June 2, 2020

Temp ( °F °C ) Dew Point ( °F °C ) Humidity (%) Winds ( mph kmh ) Pressure ( in mb ) Visibility ( mi km ) Precip ( " mm )
12:53 am 00:53 Clear 77 25 59 15 54 54 SSW 17 28 29.88 1012 10 16 0.00 0.00
1:53 am 01:53 Clear 75 23.9 59 15 58 58 SSW 16 26 29.86 1011 10 16 0.00 0.00
2:53 am 02:53 Clear 74 23.3 59 15 60 60 SSW 15 24 29.86 1011 10 16 0.00 0.00
3:53 am 03:53 Clear 73 22.8 59 15 62 62 SSW 15 24 29.85 1011 10 16 0.00 0.00
4:53 am 04:53 Clear 71 21.7 59 15 66 66 S 12 19 29.85 1011 10 16 0.00 0.00
5:53 am 05:53 Clear 69 20.6 59 15 70 70 S 12 19 29.85 1011 10 16 0.00 0.00
6:53 am 06:53 Sunny 70 21.1 59 15 68 68 S 12 19 29.85 1011 10 16 0.00 0.00
7:53 am 07:53 Sunny 72 22.2 60 15.6 66 66 S 14 22 29.85 1011 10 16 0.00 0.00
8:53 am 08:53 Sunny 73 22.8 60 15.6 64 64 SSW 14 22 29.87 1012 10 16 0.00 0.00
9:53 am 09:53 Sunny 79 26.1 62 16.7 56 56 SSW 16 26 29.86 1011 10 16 0.00 0.00
10:53 am 10:53 Sunny 82 27.8 62 16.7 51 51 SW 16 26 29.85 1011 10 16 0.00 0.00
11:53 am 11:53 Sunny 87 30.6 63 17.2 45 45 SW 15 24 29.85 1011 10 16 0.00 0.00
12:53 pm 12:53 Sunny 89 31.7 63 17.2 42 42 SSW 14 22 29.85 1011 10 16 0.00 0.00
1:53 pm 13:53 Sunny 91 32.8 62 16.7 38 38 SSW 18 30 29.84 1011 10 16 0.00 0.00
2:53 pm 14:53 Sunny 92 33.3 62 16.7 37 37 SW 15 24 29.83 1010 10 16 0.00 0.00
3:53 pm 15:53 Sunny 92 33.3 60 15.6 34 34 SW 15 24 29.83 1010 10 16 0.00 0.00
4:53 pm 16:53 Sunny 92 33.3 62 16.7 37 37 SSW 15 24 29.82 1010 10 16 0.00 0.00
5:53 pm 17:53 Sunny 91 32.8 63 17.2 39 39 SSW 10 17 29.82 1010 10 16 0.00 0.00
6:53 pm 18:53 Sunny 93 33.9 61 16.1 34 34 SSW 12 19 29.80 1009 10 16 0.00 0.00
7:53 pm 19:53 Sunny 87 30.6 61 16.1 42 42 SW 8 13 29.82 1010 10 16 0.00 0.00
8:53 pm 20:53 Sunny 85 29.4 69 20.6 59 59 NNW 14 22 29.85 1011 10 16 0.00 0.00
9:53 pm 21:53 Clear 82 27.8 64 17.8 55 55 NNW 13 20 29.87 1012 10 16 0.00 0.00
10:53 pm 22:53 Clear 79 26.1 62 16.7 56 56 NNW 12 19 29.89 1012 10 16 0.00 0.00
11:53 pm 23:53 Clear 78 25.6 58 14.4 50 50 N 13 20 29.90 1013 10 16 0.00 0.00

Powered by AerisWeather